Location: Newark
(48.1500°N, 2.9667°W)
Time: 02:34:41
(UTC+00:00)

A-11 Canister half - Pass Details

Date: 22 January 2020
Orbit: 1524 x 1684 km, 47.3° (Epoch: 26 February)

Event Time Altitude Azimuth Distance (km) Brightness Sun altitude
Rises 21:24:42 0° 268° (W) 4,712 12.2 -44.2°
Reaches altitude 10° 21:27:43 10° 268° (W) 3,745 11.5 -44.7°
Enters shadow 21:33:49 47° 267° (W) 2,012 9.7 -45.6°
Maximum altitude 21:37:15 86° 182° (S) 1,602 - -46.1°
Drops below altitude 10° 21:47:09 10° 95° (E) 3,871 - -47.6°
Sets 21:50:19 0° 95° (E) 4,877 - -48.0°
